Theta_e
294 294 295 296 296 295 295 295 295 295 295 294 294 294 294 294 294 294 294 294 294 294 294 294 293 293 292 291 291 290 290 290 290 290 290 290 290 291 293 293 293 293 292 292 291 290 289 289 289 290 292 293 293 293 294 294 294 294 294 294 293 293 293 293 293 293 293 293 292 292 291 290 290 289 289 290 292 293 294 295 295 296 296 296 296 296
293 293 293 294 294 294 294 295 295 295 294 294 294 293 293 293 293 294 294 294 294 294 294 293 292 292 291 291 290 290 290 290 290 290 290 290 291 292 293 293 293 293 292 291 291 290 289 289 289 290 291 292 292 293 293 293 293 293 292 292 292 292 292 292 292 292 292 291 291 290 289 289 289 289 290 292 293 294 294 295 295 295 295 295 296 296
292 292 292 293 293 294 294 294 294 294 294 294 293 293 293 293 293 293 293 293 293 293 293 293 292 291 290 290 290 290 290 290 290 290 290 290 291 292 293 293 293 293 292 291 291 290 289 289 289 290 291 292 292 292 292 292 292 291 291 290 290 290 291 291 291 291 290 290 289 288 288 289 290 291 292 293 294 294 294 294 294 295 295 295 295 296
292 291 291 292 292 293 293 293 293 293 293 293 293 292 292 292 292 293 293 293 293 293 293 292 291 291 290 290 290 290 290 290 290 290 290 290 291 292 293 293 293 293 292 291 291 290 289 289 289 290 291 291 291 291 291 291 291 290 290 290 290 290 290 290 290 290 290 289 288 288 289 290 291 292 292 293 293 294 294 294 294 294 294 295 295 296
292 292 292 292 292 292 293 293 293 293 292 292 292 292 292 292 292 292 292 292 292 292 291 291 291 290 290 290 290 290 290 290 290 290 290 290 291 293 293 293 293 292 292 291 290 290 289 289 289 290 290 291 291 291 291 291 290 290 290 290 290 290 291 290 290 290 290 289 288 288 289 290 291 292 292 292 293 293 293 294 294 294 294 294 295 295
293 293 292 292 292 292 292 292 292 292 292 292 292 292 292 292 292 292 292 292 292 291 291 290 290 290 290 290 290 290 290 290 290 290 290 290 291 293 294 293 293 292 292 291 290 290 289 290 290 290 290 290 290 290 291 290 290 290 290 290 290 290 291 291 290 290 289 289 289 289 290 290 291 291 291 292 292 292 293 293 293 294 294 294 294 295
293 292 292 292 292 292 292 291 291 291 291 291 291 292 292 292 292 292 292 291 291 291 290 290 290 290 290 290 290 290 290 290 290 290 289 290 291 293 294 293 293 292 291 291 290 290 290 290 290 290 290 290 290 290 290 290 290 290 290 290 291 291 291 290 290 290 289 289 289 290 290 291 291 291 291 291 292 292 292 293 293 293 294 294 294 294
293 292 292 292 292 291 291 291 291 291 291 291 291 291 291 291 291 291 291 291 291 291 290 290 290 290 290 290 290 290 290 290 290 290 290 290 291 292 293 293 292 292 291 290 290 290 290 290 290 290 290 290 290 290 290 290 290 290 290 290 290 290 290 290 290 289 289 289 289 290 290 291 291 291 291 291 291 292 292 292 293 293 293 293 294 294
293 292 291 291 291 291 291 291 290 291 291 291 292 292 292 291 291 291 291 291 291 290 290 290 290 290 290 290 290 290 290 290 290 290 290 291 292 292 292 292 291 291 290 290 290 290 290 290 289 289 289 289 289 289 289 289 290 290 290 290 290 290 290 290 289 288 289 289 290 290 291 291 291 291 291 291 291 292 292 292 292 292 293 293 293 293
293 292 291 291 292 292 292 292 291 290 291 291 291 292 292 292 292 292 292 291 291 290 290 290 290 290 290 290 290 290 290 290 290 290 290 291 292 292 292 291 291 291 290 290 289 289 289 289 289 289 289 289 289 289 289 289 290 290 290 290 290 290 289 289 288 288 289 290 290 290 291 291 291 291 291 291 292 292 292 292 292 292 292 292 292 292
293 293 292 292 291 292 292 293 291 290 290 291 291 291 291 292 292 293 293 292 292 291 291 290 290 290 291 291 290 290 290 290 290 290 290 290 291 291 291 291 290 290 290 290 289 289 289 289 289 289 289 289 289 289 290 290 290 290 289 289 289 289 289 288 288 288 290 290 290 290 290 290 291 291 291 291 291 292 292 292 292 291 291 291 291 291
293 293 293 292 291 291 292 292 291 290 290 290 290 290 290 291 291 292 293 293 293 292 291 290 290 290 290 291 291 290 290 290 290 290 290 290 290 290 290 290 290 290 290 289 289 289 289 289 289 289 289 289 290 290 290 290 290 289 289 289 289 288 288 288 288 289 290 290 291 291 290 290 290 291 291 291 291 291 291 291 291 291 291 291 290 290
293 292 292 292 292 291 291 291 290 290 289 290 290 291 291 291 291 291 292 292 293 293 292 291 290 290 290 290 290 290 290 290 290 290 290 290 290 290 290 290 290 290 290 289 289 289 289 289 289 289 290 290 290 290 290 290 289 289 289 289 288 288 287 288 289 290 290 290 290 290 291 290 290 291 291 291 291 291 291 291 290 290 290 290 290 290
293 292 292 292 292 292 291 291 291 290 290 290 291 291 292 292 291 291 291 291 292 292 291 291 290 290 289 289 289 289 289 289 290 290 290 290 290 290 290 290 290 290 290 289 289 289 289 289 289 290 290 290 290 290 289 289 289 289 288 288 288 288 288 289 290 290 290 290 290 290 290 290 290 290 291 291 291 290 290 290 290 290 290 289 289 289
293 292 292 292 292 292 292 292 291 291 291 291 291 292 292 291 291 290 291 291 291 291 290 290 290 290 289 289 289 289 289 289 289 289 290 290 290 290 290 290 290 290 290 289 290 290 290 290 290 290 290 290 290 289 289 289 289 288 288 288 288 288 288 289 290 290 290 290 290 290 290 290 290 290 290 290 290 290 289 289 289 289 289 289 289 289
293 292 292 293 293 293 292 292 292 292 292 292 292 292 292 291 290 290 291 291 291 290 290 290 290 291 291 290 290 289 289 289 289 289 290 290 290 290 290 290 290 290 290 290 290 290 290 290 290 290 290 290 289 289 289 289 288 288 288 288 288 288 289 289 290 290 290 290 290 290 290 290 290 290 290 289 289 289 289 289 288 288 289 289 289 289
293 292 293 293 293 293 293 293 292 292 292 292 292 292 291 291 291 290 291 291 291 291 290 291 291 292 293 292 291 290 290 289 289 289 290 291 291 290 290 290 290 290 290 290 290 290 290 290 290 290 290 289 289 289 289 288 288 288 288 288 288 288 289 289 289 289 290 290 289 289 289 290 289 289 289 288 288 288 288 288 288 288 288 289 289 289
293 293 293 293 293 293 293 293 293 292 293 292 292 291 291 291 291 291 291 291 291 291 291 291 292 293 293 294 292 290 290 289 289 290 290 291 291 290 290 290 290 290 290 290 290 290 290 290 290 290 290 289 289 289 289 288 288 288 288 288 288 288 289 289 289 289 289 289 289 289 289 289 289 288 288 288 288 287 287 287 288 288 288 288 288 288
293 293 293 293 293 293 293 293 293 292 292 292 291 291 290 291 291 291 291 291 291 291 291 291 292 292 292 293 292 291 290 289 290 290 291 291 291 291 290 290 290 290 290 290 290 290 290 290 290 290 289 289 289 289 288 288 288 288 287 288 288 289 289 289 289 289 289 289 289 289 289 289 288 287 287 287 287 287 287 287 288 288 288 288 288 288
293 293 293 293 293 293 294 293 293 292 292 292 291 291 291 291 290 290 291 291 291 291 291 291 291 292 292 292 292 291 290 289 290 290 291 291 292 291 291 290 290 290 290 290 291 291 290 290 290 290 289 289 289 289 288 288 288 287 287 288 288 289 289 289 289 289 289 288 288 288 288 288 287 287 287 287 287 287 287 287 288 288 288 288 287 287
293 293 293 293 293 293 294 293 292 292 292 291 291 291 291 291 290 290 290 290 290 290 291 291 291 291 291 291 291 290 289 290 290 290 291 291 292 292 291 290 290 290 291 291 291 291 290 290 290 289 289 289 289 288 288 288 288 287 287 288 288 289 289 289 288 288 288 288 288 288 288 288 287 287 287 287 287 287 287 287 287 287 287 287 287 287
293 293 293 293 293 293 293 293 292 292 291 291 291 291 291 291 290 290 290 290 290 290 290 290 291 291 290 291 290 290 289 289 290 290 291 291 292 292 292 291 290 290 291 291 291 291 290 290 290 289 289 289 288 288 288 287 287 287 287 288 288 288 288 288 288 288 288 287 287 288 288 288 288 288 288 287 287 287 287 287 287 287 287 287 287 287
292 293 293 293 293 293 293 292 292 291 291 291 291 291 291 291 290 290 290 290 290 290 290 290 290 290 290 290 290 289 289 289 289 290 291 291 292 292 292 291 290 290 291 291 291 291 290 290 289 289 289 288 288 288 288 287 287 287 287 288 288 288 288 288 288 288 287 287 287 288 288 288 288 288 288 287 287 287 287 287 287 287 287 287 286 286
292 292 292 292 292 292 292 291 291 291 290 290 290 290 290 290 290 290 290 290 290 290 290 289 290 289 290 290 290 289 289 289 289 289 290 291 291 292 291 291 290 291 291 291 291 290 290 290 289 289 288 288 288 288 287 287 287 287 287 287 287 287 287 287 287 287 287 287 288 288 288 288 288 288 287 287 287 287 287 287 287 286 286 286 286 286
291 291 291 291 291 291 291 291 290 290 290 290 290 290 290 289 289 289 289 289 289 289 290 290 290 290 290 290 290 290 290 289 289 289 290 290 291 291 291 291 290 291 291 291 291 290 290 289 289 289 289 288 288 288 287 287 287 286 286 287 287 287 287 287 287 287 287 288 288 288 288 288 288 287 287 287 287 287 286 286 286 286 286 286 286 285
291 291 291 290 290 290 290 290 290 290 290 289 289 289 289 289 289 289 289 289 289 290 290 290 291 291 291 291 291 290 290 289 289 289 289 290 290 291 291 291 290 290 290 290 290 290 289 289 289 289 289 289 288 288 287 287 286 286 286 286 286 286 286 287 287 287 288 288 288 288 288 288 287 287 287 287 287 286 286 286 286 286 286 286 285 285
292 291 291 290 290 290 290 290 290 290 290 290 290 289 289 289 289 289 290 290 290 290 290 291 292 292 292 291 291 291 291 290 290 289 289 290 290 291 291 291 290 290 290 290 290 289 289 289 289 289 289 289 288 288 287 287 286 286 286 286 286 286 286 286 287 287 287 287 287 287 287 287 287 287 287 287 286 286 286 286 286 286 285 285 285 285
292 291 291 290 290 290 290 290 291 291 291 290 290 290 290 289 290 290 290 290 290 290 291 291 292 292 292 292 292 291 291 291 290 290 289 290 290 290 291 291 290 290 289 289 289 289 289 288 288 288 288 288 288 288 287 286 286 286 286 286 286 286 286 286 286 287 287 287 287 287 287 287 287 287 287 286 286 286 286 286 285 285 285 285 285 284
292 292 291 291 290 290 290 291 291 291 291 291 291 290 290 290 290 291 291 291 290 290 291 291 291 292 292 292 292 291 291 291 291 290 289 290 290 290 290 290 290 289 289 289 288 288 288 288 288 288 288 288 288 287 287 286 286 286 286 286 286 286 286 286 286 286 286 286 286 287 287 287 287 287 287 286 286 286 285 285 285 285 285 284 284 284
292 292 292 291 291 291 291 291 291 291 291 291 291 290 290 290 290 291 291 291 291 291 291 291 291 291 291 292 292 292 291 291 291 290 290 290 290 290 290 290 289 289 289 288 288 289 289 289 288 288 288 287 287 287 287 286 286 286 286 286 286 286 286 286 286 286 286 285 286 286 286 287 287 286 286 286 286 285 285 285 285 284 284 284 284 284
292 292 292 292 291 291 291 291 291 291 291 291 291 290 290 290 290 290 291 291 291 291 291 291 291 291 291 291 292 292 292 292 291 290 290 290 290 290 290 289 289 289 288 288 288 289 289 289 288 288 287 287 287 287 286 286 286 286 286 286 286 286 286 286 286 286 286 286 286 286 286 286 286 286 286 285 285 285 285 284 284 284 284 283 283 283
292 292 292 292 292 292 291 291 291 291 291 291 291 291 290 290 290 290 290 291 291 291 291 291 291 291 291 291 292 292 292 292 291 290 290 290 290 290 289 289 289 289 288 287 288 288 289 288 288 288 287 287 287 287 286 286 286 286 286 286 287 287 287 286 286 286 286 286 286 286 286 286 286 285 285 285 285 284 284 284 284 283 283 283 283 283
292 292 292 292 292 292 292 292 292 292 292 291 291 291 291 290 290 290 290 290 290 290 291 291 291 291 291 291 291 291 291 291 290 289 289 289 289 289 289 289 289 288 288 287 287 287 287 287 287 287 287 287 287 287 287 287 286 286 287 287 287 287 287 287 286 286 286 286 286 286 286 285 285 285 285 284 284 284 284 283 283 283 283 283 283 283
291 291 291 292 292 292 292 292 292 292 291 292 292 292 292 291 290 290 290 290 290 290 290 291 291 291 291 291 291 291 291 290 289 289 289 289 289 289 289 288 288 288 288 287 287 287 287 287 287 287 287 287 287 287 287 287 287 287 287 287 287 287 287 286 286 286 286 286 286 285 285 285 285 285 284 284 284 283 283 283 283 283 283 283 283 283
291 291 291 291 291 291 291 291 291 291 291 291 292 292 292 292 291 291 290 290 290 290 290 291 291 291 291 291 291 291 291 290 290 289 288 288 288 288 288 288 288 288 287 287 287 287 287 287 287 287 287 287 287 287 287 287 287 287 287 286 286 286 286 286 286 286 286 285 285 285 285 285 285 284 284 284 284 283 283 283 283 283 283 283 282 282
290 290 290 290 291 291 291 291 291 291 291 291 291 292 292 292 291 291 291 290 290 290 290 290 291 291 291 291 291 291 290 290 290 289 289 288 288 288 288 288 288 287 287 287 287 287 287 287 287 287 287 287 287 287 287 287 287 286 286 286 286 286 286 286 286 285 285 285 285 285 285 284 284 284 284 284 283 283 283 283 283 282 282 282 282 282
290 290 290 290 290 290 290 291 291 291 291 291 291 291 291 291 291 291 291 290 290 290 290 290 290 290 290 290 290 290 290 290 289 289 289 289 288 288 288 288 287 287 287 287 287 287 287 287 287 287 287 287 287 287 287 287 287 287 286 286 286 286 286 286 285 285 285 285 285 285 284 284 284 284 284 283 283 283 283 282 282 282 282 282 282 282
290 290 290 290 290 290 290 290 290 290 290 290 291 291 291 291 291 291 290 290 290 290 290 290 290 290 290 290 289 289 289 289 289 289 289 288 288 288 288 288 288 287 287 287 287 287 287 287 287 287 287 287 287 287 287 287 287 287 286 286 286 286 286 286 285 285 285 285 285 285 284 284 284 284 283 283 283 282 282 282 282 282 282 282 282 282
290 290 290 290 290 290 290 290 290 290 290 290 290 290 290 290 290 290 290 290 290 290 289 289 289 289 289 289 289 289 289 289 288 288 288 288 288 288 288 288 288 287 287 287 287 287 287 287 287 287 287 286 286 286 286 286 286 286 286 286 286 285 285 285 285 285 285 285 285 285 284 284 284 283 283 283 282 282 282 282 282 282 282 282 282 282
290 290 290 290 290 290 290 290 290 290 290 289 289 289 289 289 289 289 289 289 289 289 289 289 289 289 288 288 288 288 288 288 288 288 288 288 288 288 287 287 287 287 287 287 287 287 287 287 287 287 286 286 286 286 286 286 286 286 286 285 285 285 285 285 285 285 285 285 285 285 284 284 283 283 282 282 282 282 282 282 282 281 281 281 281 281
290 290 290 290 290 290 290 290 289 289 289 289 289 289 289 289 289 288 289 288 288 288 288 288 288 288 288 288 288 288 288 288 288 288 288 288 288 287 287 287 287 287 287 287 287 287 287 287 287 286 286 286 286 286 285 285 285 285 285 285 285 285 285 285 285 284 284 284 284 284 284 283 283 282 282 282 282 282 281 281 281 281 281 281 281 281
290 290 290 290 290 290 290 290 290 289 289 289 289 289 289 288 288 288 288 288 288 288 288 288 288 288 288 288 288 288 288 288 288 288 288 288 287 287 287 287 287 287 287 287 287 286 286 286 286 286 286 285 285 285 285 285 285 285 285 285 285 284 284 284 284 284 284 284 284 284 283 283 283 282 282 282 282 281 281 281 281 281 281 281 281 281
290 290 290 290 290 290 290 290 290 290 289 289 289 289 289 289 289 289 289 289 288 288 288 288 288 288 288 288 288 288 288 288 288 288 288 287 287 287 287 287 287 287 286 287 286 286 286 286 286 285 285 285 285 285 285 284 284 284 284 284 284 284 284 284 284 284 284 284 284 283 283 283 282 282 282 282 281 281 281 281 281 281 281 281 282 282
290 290 291 291 290 290 290 290 290 290 290 290 290 290 289 289 289 289 289 289 289 289 289 288 288 288 289 289 289 288 288 288 287 287 287 287 287 287 287 287 287 286 286 286 286 286 286 286 285 285 285 285 285 284 284 284 284 284 284 284 284 284 284 284 284 284 284 284 283 283 283 282 282 282 281 281 281 281 281 281 281 281 281 282 282 282
290 291 291 291 291 291 290 290 290 290 290 290 290 290 290 290 290 290 290 290 290 290 289 289 289 289 289 289 289 288 288 288 287 287 287 287 287 287 287 287 286 286 286 286 286 286 286 285 285 285 285 284 284 284 284 284 284 284 284 284 284 284 284 284 284 284 284 283 283 283 282 282 282 281 281 281 281 281 281 281 282 281 281 281 281 281
291 291 291 291 291 291 291 290 290 290 290 290 290 290 290 290 290 290 290 290 290 290 290 289 289 289 289 288 288 288 288 288 288 287 287 287 287 286 286 286 285 285 285 285 285 285 285 285 285 285 284 284 284 284 284 284 284 283 284 284 284 284 284 284 284 283 283 283 283 282 282 282 281 281 281 281 281 281 281 281 281 281 281 281 281 281
291 291 291 291 291 291 291 291 290 290 290 290 290 290 290 290 290 290 290 290 290 290 289 289 289 288 288 288 288 288 288 288 288 287 287 286 286 286 285 285 285 285 285 285 285 284 284 284 284 284 284 284 284 284 284 283 283 284 284 284 284 284 284 284 283 283 283 283 282 282 282 282 281 281 281 281 281 281 281 281 281 281 281 281 281 281
291 291 291 291 291 291 291 291 291 290 290 290 290 290 290 290 290 290 290 290 289 289 289 289 289 288 288 288 288 288 288 288 288 287 287 286 286 285 285 285 285 284 284 284 284 284 284 284 283 283 284 284 284 283 283 283 283 283 284 284 284 284 284 283 283 283 283 282 282 282 282 281 281 281 281 281 281 281 281 281 281 281 281 281 281 281
291 291 291 291 291 291 291 291 291 290 290 290 290 290 290 290 290 290 289 289 289 289 289 289 289 288 288 288 288 288 288 288 287 287 286 286 286 285 285 284 284 284 284 284 283 283 283 283 283 283 283 283 283 283 283 283 283 283 284 284 283 283 283 283 283 283 283 282 282 282 281 281 281 281 281 280 281 281 281 281 281 281 281 281 281 281
291 291 291 291 291 291 291 291 291 290 290 290 290 290 290 290 289 289 289 289 289 289 289 289 289 288 288 288 288 288 287 287 287 287 286 286 286 286 285 285 284 284 284 283 283 283 283 283 283 283 283 283 283 283 283 283 283 283 283 283 283 283 283 283 283 283 283 282 282 282 281 281 280 280 280 280 281 281 281 281 281 281 281 281 281 281
291 291 291 291 291 291 291 291 290 290 290 290 290 290 289 289 289 289 289 289 289 288 288 288 288 288 288 288 288 287 287 287 286 286 286 286 286 285 285 285 284 284 284 284 284 284 284 284 284 284 283 283 283 283 283 283 283 283 283 283 283 283 283 283 283 283 282 282 282 281 281 281 281 281 281 281 281 281 281 281 281 281 281 281 281 281
Wind_Speed
14 16 19 20 21 22 23 23 21 20 20 21 21 22 23 23 22 21 20 19 18 17 17 17 17 16 15 14 13 13 12 11 12 12 13 13 13 13 13 14 14 15 14 13 12 11 10 9 9 9 10 10 11 11 11 11 11 11 11 11 11 11 11 11 11 11 12 12 12 12 12 12 12 12 11 9 9 9 10 10 10 11 11 11 12 12
14 16 18 20 20 19 20 23 21 19 19 19 20 21 21 21 21 21 20 19 18 18 18 17 17 16 15 14 13 12 12 11 12 12 13 13 13 13 14 14 15 15 15 14 13 11 10 10 10 10 11 11 12 12 12 12 13 13 13 13 13 13 13 12 13 13 13 13 13 13 13 12 12 11 9 9 9 10 10 10 11 11 11 12 12 12
13 14 16 19 19 18 17 22 22 19 17 18 19 20 20 19 19 19 19 19 18 18 18 17 16 16 15 14 13 12 12 11 12 12 13 13 13 14 14 15 15 15 15 14 13 12 11 11 11 11 11 12 12 13 13 14 14 14 14 14 14 14 13 13 14 14 14 14 13 13 12 11 11 10 9 10 10 10 11 11 11 11 12 12 12 13
13 13 15 18 19 17 15 19 22 21 17 16 17 18 19 18 17 17 17 17 17 18 18 17 16 16 15 14 14 13 12 12 12 13 13 13 14 14 14 15 15 16 15 15 14 13 12 11 11 12 12 13 13 13 14 14 15 15 15 15 14 14 14 14 14 15 14 14 13 12 12 11 10 10 10 10 11 11 11 12 12 12 12 12 13 13
12 12 14 17 18 17 14 16 19 22 21 19 18 18 19 18 17 16 16 17 17 16 17 17 17 16 15 14 14 13 12 12 12 13 13 13 14 14 15 15 16 16 16 15 14 13 13 12 12 12 13 13 13 14 14 14 15 15 15 15 14 14 14 15 15 15 15 14 13 12 11 11 11 11 11 11 11 12 12 12 12 13 13 13 13 13
12 12 13 15 16 15 14 15 18 21 22 21 20 19 19 19 18 17 16 16 16 16 16 17 17 16 15 15 14 13 13 12 13 13 13 14 14 14 15 15 16 16 16 15 15 14 13 13 13 13 13 13 14 14 14 15 15 15 15 15 14 14 15 15 15 15 15 14 13 12 11 11 11 12 12 12 12 12 12 13 13 13 13 13 13 14
11 12 13 14 14 14 14 16 18 20 20 19 19 19 20 20 20 19 18 17 17 16 17 17 17 17 16 15 15 14 13 13 13 13 14 14 14 14 15 16 16 16 16 16 15 14 14 13 13 14 14 14 14 14 15 15 15 15 15 15 15 15 16 16 16 16 15 13 12 12 12 12 12 13 13 13 13 13 13 13 13 13 13 14 14 14
11 13 14 13 12 12 13 15 18 19 19 17 15 15 16 17 18 19 19 19 19 18 18 18 17 17 17 16 15 14 14 13 13 14 14 14 14 15 16 17 17 17 17 16 15 15 14 14 14 14 15 15 15 15 15 15 15 15 15 15 16 16 17 17 16 15 14 13 12 12 12 12 13 13 13 13 13 13 13 13 13 13 13 13 14 14
10 12 14 13 12 11 11 12 16 19 19 16 13 11 11 12 13 14 16 18 19 20 19 17 16 15 15 15 15 15 14 14 13 13 13 13 13 14 16 17 17 18 17 16 16 15 15 15 15 15 16 16 16 16 16 16 16 16 16 17 17 17 17 17 16 15 13 12 12 12 12 13 13 13 13 13 13 13 13 13 13 13 13 13 13 13
10 11 13 13 13 12 10 9 12 18 21 18 15 12 10 9 9 9 11 13 16 19 19 18 15 13 12 13 14 14 14 14 14 14 14 13 13 13 14 15 16 16 16 16 16 16 16 16 16 16 17 17 17 17 17 17 17 17 18 18 18 18 17 17 15 14 12 12 12 12 13 13 13 13 13 13 13 13 13 13 12 12 12 13 13 13
9 10 11 11 12 11 10 8 10 16 20 20 17 15 14 12 10 9 9 9 11 13 16 17 16 13 10 10 11 12 13 14 14 15 15 16 16 16 16 16 16 16 16 17 17 17 17 17 17 17 17 17 18 18 18 18 19 19 19 18 18 17 17 16 14 13 12 12 12 13 13 13 13 13 13 13 12 12 12 12 12 12 12 13 13 14
9 9 9 10 10 10 10 9 10 14 16 16 14 13 15 15 14 11 10 10 9 9 10 13 15 15 13 11 9 10 11 12 12 13 14 16 17 18 18 18 18 17 17 17 18 18 18 18 17 17 17 18 18 19 19 19 19 19 18 18 17 16 15 14 13 12 12 12 13 13 13 13 13 13 12 12 12 12 12 12 12 12 13 13 14 15
9 9 9 9 9 10 11 10 9 10 12 13 13 12 13 15 16 14 12 11 9 8 7 9 11 14 16 15 12 11 10 11 11 12 13 14 15 17 17 17 16 16 16 16 16 17 17 17 17 17 17 18 18 19 19 19 18 17 16 16 15 14 14 13 12 12 12 13 13 13 13 13 13 12 12 12 11 11 11 12 12 13 14 15 15 16
9 9 9 9 10 11 12 12 11 11 12 13 14 14 12 13 14 15 13 11 10 10 10 9 9 11 14 17 17 15 13 12 12 12 13 13 14 15 15 14 14 13 13 13 13 14 15 16 16 17 17 18 18 18 17 17 16 15 14 14 13 13 12 12 12 12 12 13 13 13 13 12 12 12 11 11 11 11 12 12 13 14 15 16 16 17
11 10 10 10 11 12 13 13 13 13 13 14 14 13 11 11 13 13 12 10 10 11 11 10 10 10 12 16 18 18 17 16 14 12 13 13 14 15 15 14 14 13 13 13 13 13 14 15 15 15 16 16 16 16 15 15 14 14 13 13 13 12 12 12 12 12 13 13 13 13 12 12 11 11 11 11 11 12 12 13 14 15 15 16 16 17
12 12 11 11 12 13 13 14 14 13 13 13 13 12 11 11 12 12 11 10 9 8 8 7 7 8 10 13 17 18 18 17 15 13 12 12 13 14 15 15 13 13 13 13 13 13 13 14 14 14 14 15 15 15 14 14 13 13 13 13 12 12 12 12 12 12 13 13 12 12 11 11 10 10 10 11 11 12 13 14 14 15 15 15 15 16
12 13 13 12 12 13 13 13 14 13 12 12 12 13 13 12 12 12 11 10 8 8 7 7 7 6 6 8 12 16 17 17 15 13 11 10 11 13 15 15 14 12 12 12 12 12 12 13 13 13 14 14 15 14 13 13 13 13 12 12 12 12 12 12 12 12 12 12 12 11 11 10 10 10 10 11 12 13 13 13 14 14 14 15 15 16
13 13 13 13 13 13 13 13 13 13 13 12 12 12 13 12 11 11 11 10 9 8 8 8 8 7 6 5 7 11 13 15 14 11 10 9 9 11 13 15 15 14 12 11 11 11 11 12 12 12 13 14 14 13 13 12 12 12 12 12 12 12 12 12 12 12 12 12 12 11 10 10 10 10 11 12 12 13 13 13 13 14 14 15 15 16
14 15 15 14 14 13 13 13 13 14 14 13 12 12 12 11 11 11 11 11 10 9 8 8 9 9 8 6 5 7 9 14 13 9 8 8 8 9 12 13 14 14 13 12 12 11 11 12 13 14 14 14 13 13 12 12 12 11 11 11 12 12 12 12 12 12 12 12 11 11 10 10 11 11 12 12 12 13 13 13 14 14 15 15 16 17
15 15 16 15 14 13 13 13 14 15 15 14 13 12 11 11 11 11 11 11 11 10 9 9 8 8 8 6 4 5 8 11 11 8 7 7 8 8 10 11 12 12 12 12 12 11 11 11 12 13 13 13 13 12 12 12 11 11 11 11 11 12 12 12 12 12 12 12 12 11 11 12 12 12 13 13 13 13 14 14 14 15 16 16 17 18
15 16 16 16 15 13 13 13 14 14 15 15 14 13 12 11 11 11 12 11 11 10 10 9 8 8 6 5 5 6 9 11 9 7 6 7 8 8 9 9 10 10 10 10 10 10 10 11 11 11 12 13 12 12 12 11 11 11 11 11 12 12 12 12 13 13 13 12 12 12 12 12 12 13 13 13 14 14 14 15 15 16 16 17 18 19
15 15 14 15 14 13 12 12 13 13 14 15 15 14 12 12 12 12 12 12 11 10 10 9 8 7 6 5 5 7 9 11 9 6 6 6 8 8 8 8 8 9 9 9 9 9 9 10 10 11 12 12 12 12 11 11 11 11 11 12 12 12 12 12 13 13 13 12 12 12 12 12 13 13 13 14 15 15 15 15 16 17 17 18 19 20
16 14 12 13 13 13 12 11 12 13 14 15 16 15 14 14 13 13 12 12 12 11 10 10 9 7 7 7 6 7 9 10 9 7 6 6 7 7 7 7 7 8 9 8 8 8 8 9 9 10 11 12 12 12 11 11 11 12 12 12 12 12 12 12 12 12 12 12 12 13 13 13 13 14 14 15 15 15 16 16 17 18 19 19 20 21
18 15 12 12 13 14 13 12 13 14 15 15 16 16 15 15 14 13 12 13 12 11 10 8 7 7 7 7 7 7 9 10 10 8 7 7 8 7 6 6 6 7 8 8 7 7 8 8 9 9 10 11 12 12 12 12 12 12 12 12 12 12 12 12 12 12 12 12 13 13 13 14 14 14 15 15 16 16 16 17 18 19 20 21 21 22
20 18 16 15 15 16 15 15 15 15 15 15 15 15 15 14 13 12 11 11 10 9 8 7 6 7 7 7 7 8 8 10 11 9 7 7 8 8 6 6 6 7 8 8 7 7 7 8 8 9 9 10 11 12 12 11 11 11 11 11 11 11 11 11 11 12 12 13 13 13 14 14 15 15 16 16 16 17 17 18 19 20 21 22 22 23
20 20 19 18 18 18 18 17 17 16 15 15 15 15 15 14 13 11 10 10 9 9 8 7 8 8 8 8 8 8 8 9 11 11 9 7 7 8 8 7 7 7 8 8 7 7 8 8 9 9 9 9 10 10 11 11 11 10 10 10 10 9 10 10 11 12 13 13 14 14 15 15 15 16 16 16 17 17 18 19 20 21 22 23 23 23
20 19 19 19 19 19 18 17 16 15 15 15 16 16 16 15 13 11 10 10 10 10 9 8 8 8 8 8 8 8 8 9 10 11 10 8 7 8 8 7 7 7 8 8 8 8 9 9 9 9 9 9 8 8 9 10 10 9 9 9 9 9 10 11 12 13 13 14 14 15 15 16 16 16 17 17 17 18 18 19 20 22 23 23 22 21
19 19 19 19 19 19 18 16 15 14 14 15 15 16 17 16 14 12 12 12 11 11 10 9 8 7 7 7 7 8 8 9 10 10 10 8 7 8 8 7 6 6 7 8 8 9 10 10 10 10 9 8 7 7 8 9 9 9 9 9 10 11 12 12 13 13 14 14 15 15 16 16 16 17 17 17 18 18 19 20 21 22 22 21 20 18
18 18 18 18 17 17 16 15 15 14 15 15 16 17 18 17 16 14 12 12 12 11 11 10 9 7 7 7 7 7 8 9 10 11 11 9 8 8 8 7 6 7 7 7 8 9 9 10 9 8 8 7 6 6 6 8 8 9 10 11 12 14 14 14 14 14 14 15 15 16 16 17 17 17 17 18 18 19 20 21 21 21 21 19 18 17
18 18 17 17 17 16 15 15 15 15 16 16 17 17 18 18 16 14 12 12 12 12 11 10 9 8 7 6 5 6 7 9 11 12 12 10 8 8 7 7 7 7 6 5 5 6 7 7 6 6 6 6 6 6 6 7 8 9 10 12 13 14 15 15 15 15 15 15 16 16 17 17 17 18 18 19 19 20 21 21 21 20 19 18 17 16
18 18 17 17 17 16 16 16 16 16 17 17 18 18 19 18 16 14 12 12 12 12 11 10 10 9 8 6 4 3 4 7 10 12 12 10 8 7 7 6 6 6 6 5 3 3 3 4 3 3 3 4 5 6 6 7 8 9 10 11 12 13 14 15 15 16 16 16 16 16 17 17 18 18 19 19 20 21 21 21 20 19 18 17 16 16
17 17 16 16 16 16 17 17 17 17 17 19 19 20 19 19 18 16 14 13 13 12 11 10 10 10 10 9 6 4 4 5 9 12 12 9 7 7 7 6 6 6 6 6 5 4 2 3 3 3 4 5 6 7 8 9 10 10 11 12 12 13 13 14 14 15 15 15 15 16 16 17 18 19 20 20 21 21 21 20 19 17 16 16 16 16
17 16 16 15 16 17 17 17 17 17 18 19 19 20 20 20 20 19 18 16 15 14 12 11 10 10 10 10 10 8 6 6 8 10 11 9 7 6 6 6 6 6 6 6 7 7 6 6 7 8 8 8 9 9 10 10 11 11 11 12 12 12 12 12 13 13 14 14 14 15 16 17 18 19 19 20 20 20 19 19 17 16 16 16 16 17
17 17 16 16 16 17 18 18 18 17 18 18 18 18 19 20 20 20 20 19 18 17 14 13 12 11 11 10 10 9 9 7 8 10 11 9 8 7 7 7 7 7 6 6 7 8 8 9 9 9 9 10 10 10 10 10 11 11 11 12 12 12 12 12 12 13 13 13 14 14 15 16 17 17 17 18 18 18 18 17 17 16 16 17 17 17
18 18 17 17 17 17 18 19 19 18 18 18 18 17 17 17 18 19 20 20 19 18 17 16 14 13 11 10 9 9 9 8 9 10 11 10 9 8 7 8 8 7 7 7 7 7 7 9 9 9 9 10 10 10 10 10 10 11 11 12 12 13 13 13 13 13 13 14 14 15 15 15 15 15 15 16 16 17 17 17 18 18 18 18 18 17
17 17 18 18 17 17 18 18 18 18 18 19 18 18 17 17 16 17 17 18 18 18 18 18 17 15 13 12 10 9 9 8 8 10 11 11 10 8 8 8 8 8 7 7 7 7 7 8 9 10 10 10 10 10 10 9 9 10 11 11 12 12 12 12 12 13 13 14 14 14 14 14 14 14 15 15 16 17 18 19 19 19 19 18 18 17
17 17 17 18 18 17 17 18 18 18 18 18 19 18 18 17 16 16 16 16 17 17 17 17 17 17 16 14 12 11 9 8 8 9 10 11 10 9 8 8 8 8 8 8 8 8 8 8 9 10 10 10 9 9 9 9 9 10 10 10 10 10 11 11 11 12 13 14 14 14 14 14 14 14 15 15 16 17 18 19 18 18 17 16 16 16
16 16 17 17 17 17 17 17 17 18 17 17 17 18 18 18 18 17 16 16 16 16 16 16 16 16 16 16 15 13 11 9 9 10 11 12 11 10 9 9 8 8 9 8 8 8 9 9 9 8 9 10 10 10 10 10 10 10 10 10 10 11 11 12 12 13 13 13 14 14 14 14 14 14 14 14 15 16 16 16 15 15 15 15 15 16
16 15 16 16 17 17 17 17 17 17 16 16 16 17 17 18 19 19 18 18 18 17 17 16 15 15 15 16 16 16 14 12 12 13 13 14 13 12 10 9 9 9 9 9 10 10 10 10 9 9 8 9 10 11 11 11 11 11 11 12 12 13 12 12 12 13 13 13 13 14 14 13 13 13 14 15 15 15 15 15 15 15 14 15 15 16
15 15 15 15 15 16 16 15 15 15 15 15 16 16 17 17 18 19 19 18 18 18 17 16 15 14 15 16 16 16 15 15 15 15 15 15 15 14 12 11 10 9 10 10 11 12 12 12 12 11 11 11 11 11 12 12 12 12 12 12 13 13 12 12 12 12 13 13 14 14 13 13 13 14 14 15 15 14 14 14 15 15 15 14 14 15
14 13 14 13 14 14 14 14 14 14 15 15 15 15 16 16 16 16 16 16 16 16 15 15 15 14 14 15 16 15 15 15 15 15 15 14 14 14 14 12 11 10 10 11 12 13 13 12 12 12 13 13 13 13 14 14 13 13 13 13 13 14 14 14 13 13 13 13 13 13 13 13 13 14 14 14 14 14 15 15 15 16 15 15 14 15
13 13 12 12 12 13 13 13 14 14 15 15 15 15 15 15 14 13 13 13 13 13 14 14 13 12 12 13 14 14 15 15 14 14 14 14 14 15 15 14 13 12 12 12 12 13 13 12 12 12 13 13 13 13 14 14 14 14 13 14 14 15 15 14 13 12 12 12 12 11 12 12 13 13 14 14 14 15 15 15 16 16 16 16 15 15
13 12 11 11 12 13 14 14 14 14 14 14 14 13 14 14 14 14 13 12 12 12 13 13 13 11 10 9 10 11 12 14 14 14 14 14 15 15 15 15 15 14 14 13 13 12 12 12 12 13 13 13 13 13 14 14 14 14 14 14 13 13 11 12 11 10 10 11 11 11 12 12 13 13 14 15 15 16 16 16 16 16 16 16 16 16
12 11 11 11 12 13 13 13 13 13 13 13 12 12 12 13 13 13 12 11 11 11 11 12 12 10 9 9 9 9 10 11 13 14 15 15 15 15 15 15 15 15 14 14 12 11 11 12 12 13 13 12 13 13 14 14 14 14 14 13 13 13 12 12 12 12 11 12 12 12 12 12 13 14 15 15 16 16 15 16 16 16 16 16 16 16
12 11 11 12 12 13 13 13 13 13 12 12 12 12 12 12 12 12 12 11 11 10 10 11 10 9 9 10 10 10 9 10 11 13 14 15 15 15 15 15 15 15 15 14 13 12 11 11 12 12 12 12 13 13 14 14 14 14 14 13 13 13 14 14 13 13 12 12 12 12 12 12 13 14 15 15 16 16 16 16 16 16 16 16 16 17
12 12 12 12 13 13 13 13 13 12 12 12 11 11 11 12 12 12 12 12 11 10 10 10 10 9 9 10 10 9 9 8 9 10 12 14 15 16 16 15 15 15 15 15 14 14 13 12 12 12 11 12 13 14 14 14 13 13 14 13 13 13 13 13 13 12 12 12 12 12 12 12 13 14 15 16 16 16 16 16 16 16 16 17 17 17
13 13 13 13 13 13 13 13 13 12 12 12 11 11 12 12 12 12 12 12 11 10 10 10 10 10 10 10 10 9 9 8 8 8 8 10 13 14 15 15 15 16 16 16 16 15 15 14 13 12 11 11 12 13 13 13 13 13 13 13 13 12 12 12 12 12 12 12 12 12 12 12 13 14 15 16 16 16 16 16 16 16 16 16 17 17
14 13 13 13 13 13 13 13 13 13 12 12 12 12 12 12 13 13 12 12 11 10 10 10 10 11 11 11 11 10 10 9 8 8 7 7 8 10 12 14 15 16 16 17 17 17 16 16 15 14 13 13 13 13 13 13 13 13 13 13 12 12 12 12 12 12 12 12 13 13 13 12 13 14 15 16 16 17 17 16 16 16 15 16 16 17
14 13 13 13 13 13 12 13 13 13 12 12 12 12 12 12 13 13 12 12 11 10 10 10 11 11 11 11 11 10 10 9 9 8 7 7 7 7 9 11 12 14 14 15 15 16 17 17 18 18 18 17 16 15 15 15 14 13 13 12 12 12 13 13 13 12 12 12 13 13 13 12 13 14 15 16 17 17 17 17 16 16 15 15 16 16
14 14 14 14 13 13 12 13 13 13 12 12 12 11 11 12 13 13 13 12 11 11 12 11 11 11 11 10 10 10 9 9 9 8 8 8 7 7 7 7 8 8 8 9 10 11 13 14 16 18 20 20 19 18 17 16 15 14 13 12 12 12 12 13 12 12 12 12 12 12 12 13 14 14 14 15 16 17 18 17 17 16 15 15 16 17
15 15 15 14 14 13 13 13 13 13 13 12 12 11 11 11 11 12 12 12 12 12 12 12 11 11 11 10 10 9 9 9 9 8 8 8 7 7 7 7 7 7 6 6 7 8 8 8 10 13 15 17 18 18 18 16 14 13 12 12 12 11 12 12 12 12 11 11 12 12 12 13 14 14 14 14 15 16 17 17 17 17 16 15 16 17
Wind_Direction
198 203 203 201 198 196 197 198 199 202 206 211 214 216 218 221 224 229 233 236 239 242 247 251 255 259 264 268 270 269 266 260 252 245 238 233 231 230 230 232 236 242 247 250 254 256 258 257 253 249 247 247 247 249 250 253 254 256 259 261 265 268 271 272 272 272 273 274 276 278 278 280 281 284 287 291 293 294 293 293 293 294 295 295 296 297
202 204 204 201 196 194 197 198 198 201 206 209 212 215 217 219 223 228 233 236 239 242 247 251 256 261 266 269 270 268 263 257 250 243 236 231 228 228 229 231 236 241 246 250 253 255 257 257 253 250 249 249 250 251 252 254 255 258 260 264 267 269 270 271 270 271 272 274 277 278 280 281 284 286 290 292 292 290 290 290 291 291 292 293 294 294
198 200 201 199 195 192 197 199 199 200 205 209 213 215 217 218 221 227 232 236 240 244 248 252 258 263 267 269 269 266 261 254 247 241 234 229 226 226 227 231 236 241 245 249 252 255 257 257 255 252 251 252 253 254 256 257 260 262 266 269 272 273 273 273 272 273 275 277 279 281 283 284 286 288 289 289 288 288 288 289 290 290 290 291 292 293
192 193 197 196 194 193 199 202 201 200 201 207 212 215 216 216 219 226 232 236 241 246 251 255 259 263 266 267 267 264 258 251 245 239 233 228 225 225 227 231 236 241 245 248 252 255 257 257 256 254 253 254 255 256 258 261 263 267 270 273 275 276 276 275 275 277 279 281 283 284 285 285 285 285 284 285 286 287 288 289 290 290 289 290 291 292
191 191 194 194 193 194 199 204 205 203 202 204 208 212 215 215 218 224 231 236 241 248 254 258 262 264 265 265 264 261 256 249 243 238 232 227 225 225 227 231 236 241 245 248 252 255 257 257 256 255 255 256 257 258 260 263 266 269 272 275 276 276 275 275 276 278 281 283 284 284 283 283 282 281 280 281 284 286 288 289 289 290 290 290 290 291
191 190 192 192 193 194 197 202 206 206 206 207 210 214 216 219 221 225 231 237 242 247 253 258 262 264 264 263 262 258 253 247 242 237 231 227 225 225 228 232 236 240 244 248 252 255 256 256 255 255 255 256 258 259 261 264 267 270 273 275 275 274 273 273 275 278 280 281 281 281 280 280 279 279 279 281 283 286 287 288 289 290 290 290 289 290
190 190 189 190 192 195 198 203 206 207 206 208 213 217 221 224 226 229 233 237 241 246 252 257 261 262 262 261 259 256 251 246 242 237 232 227 224 225 228 232 236 240 244 248 252 254 254 254 253 254 255 256 258 260 262 265 267 270 272 272 272 271 271 272 274 277 278 278 277 277 277 278 278 279 280 282 284 286 287 288 288 289 290 290 290 289
186 192 192 190 192 197 201 207 208 207 205 206 211 217 223 228 232 234 237 240 243 247 251 256 259 261 260 259 256 252 247 244 241 238 234 230 227 227 229 232 236 240 244 248 251 252 252 252 252 253 254 256 258 260 263 265 268 269 269 268 268 268 270 272 274 275 275 274 274 275 276 277 278 279 281 282 284 286 286 287 288 289 289 290 290 291
185 191 195 194 194 195 201 209 213 210 206 204 206 211 217 224 230 236 240 243 246 248 249 251 254 257 257 255 252 248 244 239 235 232 231 230 229 230 232 236 240 244 247 249 250 251 251 251 251 252 254 256 258 261 264 266 267 267 267 267 267 268 270 272 272 272 271 271 272 273 274 275 277 279 281 283 284 285 286 287 287 288 289 289 290 291
189 190 194 197 198 198 198 203 214 215 210 205 205 209 212 215 219 226 233 240 245 248 248 246 245 246 248 248 247 245 242 238 234 230 226 224 225 227 231 235 240 244 247 249 249 250 250 250 251 253 255 257 260 263 265 267 267 267 267 267 268 269 270 270 269 269 268 269 270 271 273 275 277 278 281 283 284 285 285 286 287 287 288 289 290 291
191 190 191 195 200 202 201 198 208 215 214 210 211 215 218 218 217 220 225 229 236 243 246 245 240 235 232 234 239 240 239 236 235 234 231 228 226 227 231 234 238 241 245 247 249 250 250 251 252 253 256 258 261 264 267 268 268 269 269 269 270 270 269 267 265 265 266 267 269 271 273 274 276 278 281 283 284 284 285 285 286 286 287 288 289 290
191 190 190 192 196 201 204 205 212 215 213 211 214 223 228 226 223 223 227 230 229 230 236 240 239 233 226 222 223 228 231 231 232 234 234 234 234 235 236 239 242 244 247 249 251 252 252 252 253 254 257 260 263 265 267 268 270 270 271 271 270 269 266 263 262 263 265 268 271 273 274 275 277 279 282 283 283 283 284 285 286 286 287 288 289 290
192 191 191 193 195 199 203 204 207 208 207 207 211 218 224 225 223 222 226 231 232 228 222 228 234 234 230 225 220 219 222 224 228 231 233 235 237 238 239 240 242 244 246 248 249 251 252 253 254 256 258 261 263 265 267 268 269 270 271 270 269 266 262 260 260 263 266 269 272 275 276 277 278 280 281 282 282 283 284 285 286 288 289 290 290 291
193 193 195 199 202 203 204 204 204 204 206 209 212 215 218 218 217 218 222 228 232 231 226 225 228 234 236 232 228 226 224 225 229 232 234 236 236 237 236 237 238 239 240 241 243 247 251 254 256 259 261 263 264 265 266 267 268 269 268 267 265 261 259 259 261 264 267 270 273 275 276 277 279 279 280 281 282 284 285 287 288 289 290 290 291 291
194 193 197 204 207 208 207 206 207 209 210 211 211 211 211 212 212 213 215 220 226 229 230 231 234 238 242 240 237 235 233 232 233 235 237 238 238 236 234 233 234 236 237 239 241 246 251 254 257 259 261 261 262 262 263 264 265 266 265 263 261 259 258 259 262 265 268 271 273 275 276 276 277 278 279 281 284 286 287 289 289 290 291 292 292 293
197 196 200 206 210 210 209 207 208 210 211 209 207 205 205 207 209 210 210 213 215 217 220 226 235 242 242 244 243 241 237 234 232 233 235 237 236 235 233 231 231 234 238 241 244 248 252 255 257 257 257 257 258 258 259 260 262 263 262 261 259 258 259 260 263 265 268 271 273 274 274 274 275 276 279 282 285 287 289 290 291 293 294 295 295 296
200 202 206 209 212 213 210 207 208 209 207 204 203 204 205 207 209 210 209 209 208 208 213 218 227 235 235 234 241 243 236 230 227 227 231 232 232 233 233 229 229 232 237 242 245 248 251 253 255 254 253 254 255 256 257 259 261 262 261 260 259 259 260 261 263 266 269 271 272 271 271 271 273 276 280 283 286 288 291 293 295 297 297 297 298 297
204 206 208 211 214 214 210 205 204 204 203 201 201 203 208 210 210 210 208 207 206 208 212 217 223 232 238 229 234 236 229 219 216 218 224 228 228 230 233 232 232 234 239 243 246 247 248 249 249 249 250 252 253 255 257 260 262 263 262 261 260 260 261 262 265 267 269 270 269 268 267 268 270 274 280 285 289 291 293 296 298 298 299 299 299 299
209 210 210 213 214 213 209 205 203 203 203 201 199 201 205 207 208 208 208 208 209 209 211 218 225 232 239 240 239 230 216 206 204 207 217 227 227 227 234 236 237 239 243 246 246 245 245 247 249 251 251 252 253 256 259 262 264 265 264 262 261 261 262 263 265 267 268 268 266 265 264 266 270 275 281 288 292 295 296 297 299 299 300 301 301 300
212 212 213 213 213 212 211 208 205 204 202 199 197 197 198 202 204 206 208 209 212 213 215 219 225 231 235 236 233 219 205 196 196 204 219 233 232 229 233 234 236 240 245 247 246 243 241 244 249 253 254 255 256 258 261 264 266 266 265 263 262 262 263 264 266 266 266 264 262 261 262 266 271 278 284 289 292 295 296 297 298 299 300 301 301 301
215 217 216 213 212 212 213 212 208 204 200 197 195 196 198 200 202 204 207 208 210 213 216 220 225 228 227 223 218 212 207 196 195 205 227 240 241 235 230 229 232 237 242 244 243 239 239 242 245 250 255 258 260 262 264 267 268 267 265 263 263 263 264 264 265 264 263 260 259 260 263 268 274 280 285 288 291 293 295 296 297 299 300 301 302 301
218 220 218 214 213 213 213 211 206 201 197 195 195 196 198 199 199 201 204 204 206 208 211 216 221 222 219 213 212 213 212 204 203 213 234 248 249 242 227 223 227 235 242 244 241 237 237 241 245 250 256 261 265 267 269 270 269 267 265 263 262 263 263 264 263 261 260 259 259 261 266 270 275 280 284 288 290 292 294 295 297 299 300 301 302 301
221 222 220 216 215 214 211 207 201 198 197 199 201 202 203 202 201 200 202 203 204 207 209 213 216 218 217 212 212 215 217 213 212 218 235 249 253 246 227 222 227 237 244 245 242 238 238 242 246 250 257 263 268 271 273 272 270 267 264 262 261 261 260 259 259 258 259 260 261 264 267 272 276 280 283 287 289 291 292 294 296 299 300 301 302 301
224 224 223 219 215 211 208 205 202 202 203 205 206 208 209 208 207 206 205 205 205 204 204 206 210 216 221 220 218 218 221 220 217 216 231 247 254 252 237 228 233 243 249 249 246 243 243 246 248 251 256 264 271 276 277 276 271 267 262 260 258 256 255 255 256 257 259 261 263 266 270 273 277 280 283 286 288 290 291 294 296 299 301 302 302 301
223 223 222 221 217 213 211 210 212 213 214 211 208 207 207 206 205 203 201 200 197 194 191 194 203 214 219 217 217 218 219 221 216 213 222 241 254 257 250 242 244 251 257 256 252 248 250 253 254 254 255 261 270 278 280 278 272 265 258 254 251 250 251 254 257 260 262 264 266 269 272 276 278 281 283 285 287 289 291 294 297 300 301 302 302 301
224 223 223 223 222 221 219 221 225 226 224 217 209 204 201 198 194 191 188 188 186 183 183 194 207 215 215 214 216 218 216 215 211 210 214 230 251 258 255 249 248 253 260 262 259 256 257 259 260 259 257 257 264 272 278 276 269 260 250 244 242 245 251 258 262 264 265 267 269 272 275 277 280 281 283 285 287 289 292 295 298 300 302 303 302 300
225 225 225 226 227 227 228 229 230 229 226 219 212 205 199 192 187 184 185 187 185 183 187 198 209 214 214 214 216 216 213 207 205 205 208 221 242 254 254 249 247 252 261 265 265 263 262 263 263 262 259 257 257 261 268 268 262 251 240 237 241 250 261 266 267 268 269 270 272 274 276 278 280 281 283 284 286 289 292 296 298 301 303 303 302 300
225 225 226 227 229 230 230 229 227 222 218 214 211 206 200 192 187 187 193 190 186 185 192 201 206 208 211 213 215 214 210 204 200 200 204 214 233 247 250 247 246 251 262 270 271 269 265 262 260 259 257 257 256 258 260 260 254 245 241 246 255 265 271 273 273 273 273 273 274 276 277 278 280 281 282 284 286 289 293 296 299 302 303 303 301 298
222 224 224 225 226 227 227 224 220 215 211 208 207 205 201 196 193 193 193 187 184 187 196 202 205 206 208 211 213 214 214 210 207 204 204 211 228 241 245 245 246 251 262 273 277 274 265 260 255 252 251 253 254 255 255 255 253 251 255 262 269 274 277 278 279 278 278 277 277 277 277 278 279 281 282 284 286 289 293 296 300 302 303 301 299 296
219 220 220 221 221 221 219 216 213 210 207 205 204 203 202 200 199 197 192 186 184 188 196 200 203 204 205 207 212 218 222 219 213 207 203 206 221 237 240 241 243 246 253 268 279 278 270 262 253 245 245 249 252 253 252 254 257 261 265 270 274 276 278 280 282 283 282 281 280 279 278 278 279 280 281 283 286 290 293 296 299 301 301 299 297 295
212 213 214 215 215 214 212 210 208 206 205 204 203 203 203 203 202 199 193 189 188 190 193 196 199 200 200 201 207 217 221 214 205 199 199 203 217 232 235 238 240 239 238 246 264 287 286 276 258 240 243 251 256 257 257 260 263 266 269 272 273 275 277 279 282 283 283 282 281 279 278 278 279 280 282 284 287 290 293 295 297 298 298 297 295 293
207 208 209 209 208 207 206 205 204 203 202 203 203 204 204 205 204 202 198 195 193 193 194 197 199 201 203 206 210 216 215 193 189 190 191 199 216 230 233 235 237 236 233 234 246 264 286 287 283 277 274 272 271 268 266 266 267 267 269 271 272 274 275 278 281 282 282 282 281 280 279 279 280 282 284 286 288 290 292 294 295 295 295 294 293 292
205 205 205 204 203 202 201 200 200 199 199 200 202 204 205 207 209 208 206 204 201 199 199 201 203 206 209 212 217 221 221 198 190 192 194 200 214 230 233 233 235 237 238 239 246 253 261 271 279 284 284 281 278 274 271 269 268 267 267 268 270 273 276 278 279 280 281 281 281 281 282 282 283 285 286 288 289 291 292 293 293 292 292 292 291 291
205 205 203 202 201 200 200 199 198 198 198 199 201 203 205 208 210 212 211 211 209 207 206 205 206 208 210 213 216 220 223 213 203 204 208 208 218 231 235 234 236 239 243 247 250 253 257 262 269 276 280 281 278 275 273 270 268 266 265 266 269 273 276 278 279 279 280 280 281 282 283 284 285 286 287 288 289 290 291 291 291 290 288 287 287 288
205 205 205 204 203 202 202 201 201 200 199 200 200 202 204 205 207 209 211 211 212 212 211 210 210 210 210 212 214 218 222 217 211 210 211 210 217 228 235 236 236 237 242 246 250 253 259 262 264 269 276 281 281 279 275 271 267 265 265 266 268 271 274 276 277 278 279 280 280 281 282 283 285 285 287 287 288 289 290 290 289 288 287 285 283 282
204 205 206 206 205 205 205 205 204 204 203 203 203 203 203 203 204 205 207 209 210 212 212 213 213 213 213 215 217 220 223 220 213 208 208 209 213 221 231 235 234 233 236 241 245 251 259 264 267 269 273 277 281 281 278 273 269 267 266 267 268 270 272 273 274 276 278 279 280 281 281 283 284 285 286 287 288 289 290 290 290 290 289 286 283 278
203 205 206 206 206 207 207 208 208 207 207 207 206 206 205 206 206 207 207 208 210 212 214 216 218 219 220 223 224 227 228 224 215 208 208 211 213 219 227 233 233 230 229 235 242 250 257 265 269 270 269 269 272 277 279 278 276 272 270 271 271 272 272 274 275 276 277 278 279 280 281 283 284 285 287 289 290 291 292 292 292 292 290 288 285 281
203 205 206 206 207 207 208 209 209 209 209 208 208 208 209 210 211 213 214 215 216 217 219 222 225 228 230 232 233 233 232 228 221 216 214 216 217 219 224 231 233 231 230 234 242 250 257 262 265 268 267 267 269 272 276 280 280 279 278 277 277 277 277 278 279 279 278 278 278 280 281 283 285 287 289 291 293 294 294 294 294 293 292 290 287 285
201 203 204 205 205 206 207 209 209 209 209 208 208 209 211 213 215 217 219 222 224 225 226 228 230 233 236 238 239 237 234 229 226 225 225 225 224 223 223 228 233 236 236 240 245 250 253 256 259 262 267 271 272 274 276 277 279 281 283 284 283 281 279 280 280 279 279 279 280 281 283 284 285 288 290 292 294 294 294 294 294 294 294 294 292 290
199 201 202 202 203 203 204 205 205 205 204 204 206 207 210 212 215 218 220 223 226 227 228 229 230 232 235 238 239 239 235 231 229 230 232 231 229 227 225 227 231 237 242 246 248 250 251 254 258 261 264 269 273 275 277 276 277 280 284 286 284 282 281 282 281 280 280 280 280 281 283 284 285 287 289 290 290 290 290 291 292 292 293 292 292 292
196 198 200 199 199 199 200 200 199 198 198 198 198 200 202 204 206 208 211 216 218 220 222 224 225 228 233 236 238 238 236 233 232 232 233 232 231 229 229 228 231 237 244 247 249 250 251 254 258 261 264 267 270 273 274 275 276 279 281 281 281 282 284 283 282 280 279 278 278 278 280 283 285 286 287 287 287 286 287 287 288 289 289 288 287 287
195 196 196 194 192 192 192 191 191 191 191 190 190 191 193 194 194 194 196 199 204 209 214 216 218 223 230 237 239 239 237 235 234 234 235 235 234 233 232 231 233 237 242 247 249 249 249 251 255 258 262 265 269 272 273 274 275 276 277 277 280 284 285 283 280 277 276 276 276 277 279 282 284 285 286 286 286 286 286 285 284 284 284 284 283 281
194 193 191 188 186 186 185 184 183 182 182 182 183 185 187 189 189 188 189 191 197 204 211 214 215 217 219 226 232 236 238 239 239 238 239 239 238 236 235 235 237 241 244 246 247 248 249 250 252 255 258 262 265 268 271 273 275 275 275 275 278 281 282 282 281 279 276 276 277 279 281 282 284 285 286 286 287 287 286 284 283 282 281 280 279 278
189 188 185 182 181 180 179 177 177 176 176 177 178 181 183 186 187 187 188 190 194 199 205 210 213 214 216 222 225 227 231 240 243 242 242 242 241 239 237 236 236 237 239 241 243 247 251 252 253 254 256 258 260 263 266 269 272 273 273 273 272 271 272 276 281 282 281 279 279 280 281 283 285 286 287 287 287 286 284 284 283 282 280 279 278 277
183 181 179 177 176 175 175 176 175 175 175 177 178 179 181 184 186 187 190 192 194 195 196 201 205 211 221 227 230 231 229 234 240 243 243 242 241 241 240 238 238 237 237 238 240 243 248 252 255 256 256 255 256 257 261 264 268 270 271 272 270 269 269 272 276 279 280 280 281 281 282 284 287 288 288 288 287 286 284 283 282 281 280 280 278 277
180 179 178 177 176 177 176 176 175 175 176 179 180 181 182 185 187 189 192 195 196 198 199 199 203 212 222 227 230 230 229 224 225 232 238 239 240 241 242 243 242 241 241 241 242 244 246 249 253 256 257 257 256 256 257 259 264 267 270 272 272 272 272 273 274 275 277 279 281 283 284 286 288 288 288 288 288 287 284 283 281 280 280 280 278 277
180 180 179 178 177 177 176 175 175 176 178 181 183 184 185 186 188 190 193 196 198 199 199 201 207 216 224 227 227 226 225 223 221 221 225 233 238 241 243 245 245 245 246 246 246 247 247 248 249 251 254 257 259 258 258 258 260 263 268 271 273 273 273 274 275 276 278 279 280 282 285 287 288 288 288 288 288 287 284 283 281 280 278 278 278 277
182 181 180 178 176 176 176 177 178 179 180 181 184 186 188 189 190 191 193 196 198 201 204 207 213 220 225 227 227 225 225 226 227 225 219 219 227 235 240 243 245 246 248 249 249 249 249 249 248 248 249 252 257 260 262 261 261 262 266 269 272 273 274 275 277 279 279 279 279 281 283 284 285 287 288 289 288 286 285 284 283 281 279 278 277 277
184 182 181 179 178 178 179 180 181 182 182 182 183 186 189 192 193 194 196 199 201 205 209 212 217 221 224 226 227 226 226 228 229 230 227 225 222 223 227 234 239 243 246 250 252 254 255 256 255 254 251 249 252 257 261 262 263 263 265 267 269 271 274 276 278 280 280 280 280 280 280 280 281 284 286 286 286 285 285 285 285 283 281 279 278 278
187 186 184 183 182 183 183 183 183 183 183 183 183 184 187 191 195 199 202 205 207 211 215 217 218 220 223 224 225 225 225 227 229 230 230 229 227 223 220 220 224 230 237 243 250 256 260 261 262 262 259 253 249 250 253 258 261 263 264 265 267 269 272 275 278 279 280 281 282 281 280 279 280 281 280 280 282 284 286 286 286 285 283 282 281 280
189 188 188 187 186 185 185 184 183 183 183 183 183 184 186 189 195 200 205 208 211 213 216 217 218 220 222 223 224 223 222 224 226 228 230 230 228 225 221 216 215 217 224 231 240 246 252 259 262 262 260 253 247 245 244 249 255 260 262 263 265 268 270 274 277 280 281 281 282 283 283 282 281 279 277 278 281 285 286 287 287 287 287 286 285 284